This is the latest recevied weather packets stored in our database for station/object OE5RBO. If no packets are shown the sender has not sent any weather packets the latest 10 day(s).
| Time | Temp. | Humidity | Pressure | Rain* | Wind** | Luminosity | Snow |
|---|---|---|---|---|---|---|---|
| 1787961606 | 15.56° C | 98% | 1018.9 hPa | 0 mm | - | - | - |
| 1787961006 | 15.56° C | 98% | 1019.2 hPa | 0 mm | - | - | - |
| 1787960407 | 15.56° C | 98% | 1019.3 hPa | 0 mm | - | - | - |
| 1787959805 | 15.56° C | 99% | 1019.5 hPa | 0 mm | - | - | - |
| 1787957404 | 16.11° C | 99% | 1019.5 hPa | 6.6 mm | - | - | - |
| 1787956804 | 16.11° C | 98% | 1019.7 hPa | 6.6 mm | - | - | - |
| 1787956203 | 16.11° C | 98% | 1019.8 hPa | 6.6 mm | - | - | - |
| 1787955002 | 16.11° C | 98% | 1019.3 hPa | 6.6 mm | - | - | - |
| 1787954402 | 16.67° C | 99% | 1019.1 hPa | 6.6 mm | - | - | - |
| 1787953201 | 17.78° C | 99% | 1018.8 hPa | 5.33 mm | - | - | - |
| 1787952601 | 18.33° C | 98% | 1018.6 hPa | 4.83 mm | - | - | - |
| 1787952000 | 18.89° C | 98% | 1018.3 hPa | 4.57 mm | - | - | - |
| 1787951400 | 18.89° C | 99% | 1017.7 hPa | 4.57 mm | - | - | - |
| 1787950800 | 18.89° C | 99% | 1017 hPa | 4.57 mm | - | - | - |
| 1787950199 | 18.89° C | 99% | 1016.9 hPa | 4.57 mm | - | - | - |
| 1787948999 | 18.89° C | 99% | 1016.5 hPa | 4.57 mm | - | - | - |
| 1787948398 | 18.89° C | 99% | 1016.8 hPa | 4.57 mm | - | - | - |
| 1787947798 | 18.89° C | 99% | 1016.7 hPa | 4.57 mm | - | - | - |
| 1787947197 | 18.89° C | 99% | 1016.2 hPa | 4.57 mm | - | - | - |
| 1787946597 | 18.89° C | 99% | 1015.8 hPa | 4.57 mm | - | - | - |
| 1787945997 | 18.33° C | 99% | 1016.1 hPa | 4.57 mm | - | - | - |
| 1787945396 | 18.33° C | 99% | 1015.5 hPa | 4.57 mm | - | - | - |
| 1787944196 | 18.89° C | 99% | 1015 hPa | 4.57 mm | - | - | - |
| 1787943595 | 18.89° C | 98% | 1015.2 hPa | 4.57 mm | - | - | - |
| 1787942995 | 18.89° C | 99% | 1015.3 hPa | 4.57 mm | - | - | - |
* Rain since midnight (hover to see other rain measurements)
** Current wind speed in m/s (hover to see current wind gust speed)